[[{"header":{"parameterUnit":"m.s-1","parameterCategory":1,"la1":30.2991,"la2":30.254,"lo1":-89.0895,"lo2":-89.0444,"dy":0.0017,"dx":0.0017,"nx":28,"ny":28,"refTime":"2024-07-16T03:00:00:Z","depth":0,"parameterNumber":2,"parameterNumberName":"U-component_of_WINDS"},"data":[0,0,0,0,0,0,0,0,0,0,0,0,0,0,0,0,0,0,0,0,0,0,0,0,0,0,0,0,0,0,0,0,0,0,0,0,0,0,0,0,0,0,0,0,0,0,0,0,0,0,0,0,0,0,0,0,0,0,2.6756,2.6757,0,2.6805,2.6805,2.6806,2.6786,2.6785,2.6784,2.6783,2.6829,2.6831,2.6834,0,0,0,0,0,0,0,0,0,0,0,0,0,2.6644,2.6646,2.6756,2.6757,2.6758,2.6804,2.6805,2.6806,2.6786,2.6785,2.6784,2.6782,2.6829,2.6831,2.6834,0,0,0,0,0,0,0,0,0,0,0,0,0,2.6693,2.6647,2.6756,2.6754,2.6754,2.6804,2.6805,2.6806,2.6787,2.6785,2.6783,2.6782,2.6828,2.6831,2.6834,2.6889,0,0,2.6845,2.6846,0,0,0,0,0,0,0,0,2.669,2.6697,2.6754,2.6754,2.6754,2.6788,2.6782,2.6834,2.6787,2.6774,2.6783,2.6781,2.6817,2.6821,2.6833,2.6891,2.6893,2.6845,2.6847,2.6849,2.685,0,0,0,0,0,0,0,2.6686,2.6694,2.6775,2.6754,2.6755,2.6749,2.6754,2.6792,2.6804,2.6775,2.6774,2.678,2.6816,2.683,2.6834,2.6894,2.6845,2.6848,2.685,2.6851,2.6997,2.6998,0,0,0,0,0,0,2.6684,2.6692,2.6774,2.6777,2.6717,2.6752,2.6758,2.6779,2.6804,2.6806,2.6781,2.6779,2.6825,2.683,2.6836,2.69,2.6849,2.6852,2.6854,2.6995,2.6997,2.6999,0,0,0,0,0,0,2.6681,2.6691,2.6772,2.6734,2.6744,2.6756,2.678,2.6781,2.6794,2.6809,2.681,2.6793,2.6824,2.6831,2.6876,2.6901,2.6853,2.6856,2.6993,2.6995,2.6998,2.7029,0,0,0,0,0,0,2.6678,2.669,2.6712,2.6735,2.6746,2.6812,2.6781,2.6783,2.6801,2.6798,2.682,2.6822,2.6823,2.6871,2.6879,2.6905,2.6859,2.699,2.6994,2.6997,2.7025,2.7032,2.7038,0,0,0,0,0,2.6674,2.6719,2.6713,2.6723,2.6774,2.6814,2.682,2.6821,2.6803,2.6824,2.6833,2.6822,2.6898,2.6875,2.6885,2.6912,2.6989,2.6993,2.6997,2.7022,2.7031,2.7038,0,0,0,0,0,0,2.6698,2.6722,2.6716,2.677,2.679,2.681,2.6837,2.683,2.6855,2.6851,2.6851,2.6856,2.6901,2.6912,2.6887,2.6965,2.694,2.6946,2.6956,2.6964,2.697,2.6966,2.6862,0,0,0,0,0,2.671,2.6741,2.676,2.6805,2.6816,2.6825,2.6842,2.6841,2.6862,2.687,2.6882,2.6902,2.6929,2.6948,2.6975,2.7028,2.7031,2.7051,2.7057,2.7062,2.7066,2.7092,2.7101,2.7012,2.7012,2.7012,0,0,2.6734,2.6751,2.677,2.681,2.6826,2.6857,2.6832,2.6866,2.6889,2.6875,2.6917,2.6927,2.6948,2.6997,2.7019,2.7006,2.7092,2.7067,2.7071,2.7073,2.7097,2.7106,2.7113,2.7015,2.7015,2.7014,0,0,2.6793,2.681,2.6848,2.6865,2.6889,2.6894,2.6904,2.6925,2.6931,2.6974,2.6964,2.699,2.7039,2.7054,2.7068,2.7132,2.7122,2.7141,2.7172,2.7198,2.7205,2.7211,2.7231,2.7239,2.7146,2.7146,2.7146,0,2.6819,2.6866,2.6869,2.6904,2.692,2.6911,2.6948,2.6964,2.6995,2.7006,2.6993,2.7052,2.7067,2.7117,2.7132,2.7145,2.7154,2.7137,2.7204,2.721,2.7216,2.7235,2.7243,2.7148,2.7148,2.7148,2.7147,0,2.6896,2.6929,2.6957,2.6988,2.7008,2.7044,2.7051,2.7071,2.7069,2.7075,2.7118,2.7134,2.7163,2.7176,2.7174,2.7225,2.7217,2.7204,2.7178,2.7226,2.7244,2.7252,2.7151,2.715,2.715,2.7149,0,0,2.697,2.7002,2.7012,2.7025,2.7051,2.7075,2.711,2.7139,2.7155,2.7178,2.7205,2.7247,2.7234,2.725,2.725,2.7273,2.7319,2.7257,2.7257,2.7265,2.7374,2.7382,2.739,2.7314,2.7315,2.7316,2.7371,0,2.7029,2.7091,2.7094,2.715,2.7179,2.717,2.72,2.7218,2.7225,2.725,2.7258,2.7286,2.7269,2.7278,2.7301,2.7309,2.7341,2.7305,2.7337,2.7338,2.7329,2.74,2.7409,2.746,2.7379,2.738,2.7381,0,2.7105,2.713,2.7189,2.7209,2.7221,2.7248,2.7274,2.7299,2.7319,2.7322,2.734,2.7336,2.737,2.7345,2.7391,2.7367,2.738,2.7386,2.7388,2.7389,2.736,2.74,2.7477,2.7483,2.7392,2.7392,2.7391,0,2.715,2.7198,2.7239,2.725,2.7276,2.7295,2.7306,2.7324,2.7341,2.7364,2.7374,2.74,2.7414,2.7434,2.7436,2.7418,2.7481,2.7457,2.7483,2.7482,2.7494,2.7493,2.7571,2.7507,2.7507,2.7507,2.7507,0,2.7213,2.7249,2.7259,2.7283,2.7323,2.7325,2.7364,2.7373,2.739,2.7415,2.741,2.7433,2.7436,2.746,2.7463,2.7498,2.7505,2.7507,2.7507,2.7507,2.7506,2.7513,2.7509,2.7509,2.7509,2.7508,2.7508,0,2.7268,2.7277,2.732,2.7341,2.7347,2.7374,2.7391,2.7414,2.7421,2.7453,2.7461,2.7471,2.7499,2.7504,2.7537,2.7538,2.758,2.7578,2.7573,2.7572,2.7596,2.7593,2.768,2.769,2.7622,2.7623,2.7624,0,2.7307,2.7334,2.7358,2.7375,2.7387,2.7415,2.7432,2.7436,2.7453,2.7477,2.7497,2.7524,2.7546,2.7591,2.76,2.7625,2.7621,2.765,2.7625,2.7623,2.7618,2.7616,2.7617,2.7654,2.7655,2.7655,2.7656,0,2.7374,2.7377,2.7402,2.7429,2.7449,2.747,2.749,2.7504,2.751,2.753,2.7559,2.7576,2.7609,2.7636,2.766,2.767,2.7663,2.7664,2.7671,2.7669,2.7664,2.7664,2.7584,2.7661,2.7661,2.766,2.766,2.766,2.742,2.7443,2.7463,2.7491,2.7506,2.7525,2.7547,2.7557,2.7581,2.7609,2.761,2.764,2.7658,2.769,2.7702,2.7725,2.7716,2.7726,2.7728,2.773,2.7731,2.7663,2.773,2.773,2.773,2.7729,2.7729,0,2.7484,2.7497,2.7523,2.755,2.7572,2.7566,2.7587,2.7605,2.7632,2.765,2.7672,2.7704,2.7729,2.7741,2.7766,2.7782,2.7779,2.7788,2.7785,2.7787,2.7739,2.773,2.7789,2.7789,2.7789,2.7789,2.7789,2.7789,2.752,2.7558,2.7563,2.7607,2.7619,2.765,2.7662,2.7679,2.7693,2.7729,2.775,2.7758,2.7773,2.7799,2.7821,2.7824,2.7832,2.7841,2.7842,2.7797,2.7791,2.7785,2.7776,2.7844,2.7844,2.7888,2.7888,2.7889]},{"header":{"parameterUnit":"m.s-1","parameterCategory":1,"la1":30.2991,"la2":30.254,"lo1":-89.0895,"lo2":-89.0444,"dy":0.0017,"dx":0.0017,"nx":28,"ny":28,"refTime":"2024-07-16T03:00:00:Z","depth":0,"parameterNumber":3,"parameterNumberName":"V-component_of_WINDS"},"data":[0,0,0,0,0,0,0,0,0,0,0,0,0,0,0,0,0,0,0,0,0,0,0,0,0,0,0,0,0,0,0,0,0,0,0,0,0,0,0,0,0,0,0,0,0,0,0,0,0,0,0,0,0,0,0,0,0,0,4.3835,4.3836,0,4.3964,4.3965,4.3967,4.396,4.3958,4.3956,4.3954,4.408,4.4085,4.409,0,0,0,0,0,0,0,0,0,0,0,0,0,4.3574,4.3579,4.3834,4.3836,4.3838,4.3963,4.3965,4.3967,4.396,4.3958,4.3956,4.3953,4.4078,4.4084,4.409,0,0,0,0,0,0,0,0,0,0,0,0,0,4.3693,4.358,4.3834,4.385,4.3852,4.3963,4.3965,4.3967,4.3961,4.3958,4.3955,4.3952,4.4076,4.4083,4.4091,4.4193,0,0,4.4114,4.4117,0,0,0,0,0,0,0,0,4.3686,4.3703,4.3846,4.3849,4.3852,4.3943,4.3919,4.4043,4.3961,4.3919,4.3954,4.3951,4.4036,4.4047,4.4077,4.4199,4.4204,4.4115,4.4119,4.4122,4.4125,0,0,0,0,0,0,0,4.3678,4.3697,4.3885,4.3848,4.3852,4.3847,4.3861,4.3943,4.3991,4.3923,4.3922,4.3938,4.4037,4.4069,4.408,4.4206,4.4114,4.4121,4.4126,4.4129,4.4416,4.4418,0,0,0,0,0,0,4.3668,4.369,4.3881,4.3889,4.3761,4.3854,4.387,4.3916,4.399,4.3999,4.394,4.3937,4.4058,4.4071,4.4084,4.4207,4.4122,4.413,4.4134,4.4412,4.4416,4.442,0,0,0,0,0,0,4.3662,4.3685,4.3876,4.379,4.3814,4.3862,4.3914,4.392,4.3953,4.4004,4.4012,4.3965,4.4056,4.4073,4.4166,4.4211,4.4133,4.414,4.4409,4.4414,4.4418,4.4455,0,0,0,0,0,0,4.3655,4.3683,4.3724,4.3791,4.3819,4.3958,4.3917,4.3925,4.3967,4.3964,4.4029,4.4037,4.4055,4.4155,4.4173,4.422,4.4146,4.4405,4.4411,4.4416,4.445,4.446,4.4469,0,0,0,0,0,4.3645,4.3728,4.3726,4.3749,4.3872,4.3961,4.3976,4.3998,4.3971,4.4011,4.4043,4.4035,4.4203,4.4164,4.4185,4.4235,4.4402,4.4409,4.4416,4.4445,4.4458,4.4469,0,0,0,0,0,0,4.3663,4.3737,4.3736,4.3843,4.3896,4.396,4.4012,4.4011,4.4071,4.4065,4.4087,4.4101,4.4194,4.4224,4.4179,4.4337,4.4299,4.431,4.4314,4.4327,4.4336,4.4327,4.4152,0,0,0,0,0,4.368,4.3749,4.3809,4.3897,4.3924,4.3963,4.4003,4.4015,4.407,4.4091,4.4131,4.4182,4.4246,4.4288,4.435,4.4454,4.4467,4.4498,4.4508,4.4516,4.4525,4.4581,4.4595,4.4442,4.4442,4.4442,0,0,4.3714,4.3763,4.3805,4.3902,4.3945,4.4013,4.3982,4.4056,4.4106,4.4102,4.4192,4.4222,4.4281,4.4379,4.4424,4.4407,4.457,4.4525,4.453,4.4536,4.4589,4.4604,4.4616,4.4447,4.4446,4.4445,0,0,4.3813,4.3858,4.3936,4.3979,4.4045,4.407,4.4088,4.4152,4.4173,4.4265,4.4262,4.432,4.4431,4.4473,4.4508,4.4621,4.4615,4.464,4.469,4.4744,4.4756,4.4767,4.4806,4.482,4.4649,4.4649,4.465,0,4.3847,4.3953,4.3976,4.4051,4.4092,4.4093,4.4171,4.4211,4.4292,4.432,4.4299,4.4438,4.4477,4.4585,4.4612,4.4641,4.4661,4.4633,4.4753,4.4764,4.4774,4.4811,4.4826,4.4652,4.4652,4.4651,4.4651,0,4.3991,4.4064,4.4119,4.42,4.4247,4.4323,4.4355,4.44,4.4407,4.4434,4.4525,4.4573,4.4644,4.467,4.4677,4.4778,4.4765,4.4749,4.4711,4.4791,4.4826,4.4841,4.4656,4.4655,4.4654,4.4653,0,0,4.4104,4.4197,4.4216,4.4252,4.4324,4.4379,4.4454,4.4526,4.4563,4.4618,4.468,4.4773,4.4759,4.4799,4.481,4.4857,4.4942,4.4835,4.4837,4.4852,4.5054,4.5066,4.5082,4.4938,4.4941,4.4943,4.5049,0,4.4209,4.4345,4.4367,4.4485,4.4551,4.4552,4.4617,4.4666,4.4693,4.4751,4.4778,4.4844,4.482,4.4844,4.4891,4.4922,4.4982,4.4914,4.4994,4.4996,4.4979,4.5101,4.5114,4.5211,4.5063,4.5065,4.5067,0,4.435,4.4411,4.4536,4.4598,4.4626,4.4685,4.4751,4.4808,4.4862,4.4878,4.4923,4.4928,4.5003,4.4962,4.5064,4.5017,4.5051,4.507,4.5074,4.5082,4.5036,4.5111,4.5243,4.5257,4.5089,4.5087,4.5086,0,4.4419,4.4532,4.4622,4.4652,4.4727,4.4767,4.48,4.4852,4.4893,4.495,4.4977,4.5041,4.5076,4.5124,4.5146,4.5115,4.5246,4.5207,4.5259,4.5258,4.5286,4.5284,4.5424,4.5309,4.5309,4.5308,4.5308,0,4.4534,4.461,4.4654,4.4709,4.4793,4.4816,4.4898,4.4929,4.4975,4.5034,4.5038,4.5092,4.5118,4.5175,4.5192,4.5273,4.5289,4.5302,4.5305,4.5301,4.53,4.5323,4.5317,4.5312,4.5311,4.5311,4.531,0,4.4625,4.4658,4.4755,4.4818,4.4835,4.4894,4.4946,4.4998,4.5024,4.5098,4.5116,4.5156,4.5224,4.5251,4.5333,4.5344,4.5437,4.5435,4.5419,4.542,4.547,4.5464,4.563,4.5652,4.5522,4.5523,4.5524,0,4.4696,4.4755,4.4824,4.4865,4.4899,4.4965,4.5007,4.5031,4.5075,4.5141,4.5184,4.5252,4.5308,4.5416,4.545,4.5513,4.5512,4.5566,4.5521,4.5515,4.5512,4.5508,4.5513,4.5574,4.5575,4.5576,4.5577,0,4.4818,4.4831,4.4894,4.4962,4.5012,4.5066,4.5119,4.5151,4.5183,4.5231,4.5302,4.5345,4.543,4.5497,4.5561,4.5591,4.5589,4.5591,4.5606,4.5602,4.559,4.5596,4.5441,4.5587,4.5586,4.5585,4.5584,4.5584,4.4901,4.4953,4.5009,4.5078,4.512,4.5169,4.5221,4.5253,4.5314,4.5386,4.5396,4.5471,4.5522,4.5608,4.5641,4.5698,4.5684,4.5706,4.5711,4.5716,4.5719,4.5581,4.571,4.571,4.5709,4.5709,4.5709,0,4.5022,4.5058,4.5122,4.5196,4.5249,4.5245,4.5302,4.5346,4.5413,4.5462,4.5517,4.5597,4.5662,4.5701,4.5766,4.5804,4.5804,4.5819,4.5816,4.5823,4.5729,4.5709,4.5818,4.5818,4.5818,4.5818,4.5818,4.5818,4.5091,4.5179,4.5198,4.5305,4.5341,4.5416,4.5449,4.5493,4.5532,4.5622,4.5677,4.5703,4.5747,4.5815,4.5873,4.5882,4.5905,4.5922,4.593,4.5841,4.583,4.5819,4.5801,4.5927,4.5927,4.6019,4.602,4.6021]}]]